GFSNIL_850_spd_120.txt.gz
Wind_Speed
25 27 25 24 24 23 24 23 22 20 21 23 19 27 34 30 26 29 30 30 27 29
21 23 27 29 25 25 23 25 25 22 20 19 14 16 18 26 26 29 24 25 28 23
23 26 30 26 24 24 23 21 18 19 19 14 12 11 13 15 14 20 25 24 20 21
7 14 22 21 20 18 17 14 9 8 11 13 13 11 12 13 15 18 20 23 27 31
20 13 17 19 21 18 13 10 11 7 6 9 14 15 12 16 21 24 23 27 27 19
19 20 19 17 13 13 10 8 8 4 4 5 4 4 7 7 9 10 11 12 15 17
15 17 13 12 12 12 10 9 8 7 5 4 3 4 4 6 7 9 10 12 14 16
13 10 12 10 9 8 7 6 4 3 1 1 2 3 5 6 8 10 12 14 15 17
9 8 8 8 8 6 5 4 3 2 2 3 5 7 10 11 11 12 14 15 16 18
6 6 5 6 5 4 4 4 4 5 5 6 7 8 9 10 12 14 15 17 18 18
4 5 5 6 5 5 6 6 6 6 6 7 8 8 10 11 12 12 12 14 15 16
3 4 4 5 5 5 5 4 4 5 6 7 8 10 11 13 13 14 15 16 16 18
2 2 2 3 3 3 4 5 7 8 9 10 12 13 16 16 14 14 16 17 18 19
3 3 2 3 4 5 6 8 9 10 10 11 13 15 17 18 16 19 20 21 21 21

GFSNIL_850_spd_123.txt.gz
Wind_Speed
25 27 27 28 26 24 26 26 25 24 23 23 25 26 23 25 25 33 30 28 28 25
21 21 23 26 24 23 20 21 20 23 25 25 26 20 22 20 28 31 28 24 25 23
20 22 21 19 22 22 22 23 26 26 27 25 21 21 19 17 17 22 22 24 22 22
15 17 20 25 25 25 26 24 22 22 17 21 31 20 17 15 13 13 13 17 20 23
8 4 9 21 18 17 18 16 15 20 18 14 12 10 11 12 14 15 16 19 20 23
8 14 15 19 22 17 15 13 11 7 7 7 6 6 9 8 11 12 11 12 11 13
16 15 16 14 13 13 9 8 8 4 2 2 4 4 3 4 4 5 6 7 9 11
9 8 10 8 5 9 6 7 6 6 5 4 3 2 2 3 4 6 7 9 10 12
5 5 5 6 6 6 5 4 4 3 2 0 1 2 3 3 4 5 6 8 9 10
4 4 4 4 4 3 4 4 3 3 2 2 3 3 3 5 6 7 8 9 10 10
3 3 4 5 4 4 4 3 3 2 2 3 5 6 7 7 7 6 7 8 9 9
1 2 2 2 2 2 2 2 2 3 3 5 5 6 5 6 5 7 8 9 9 11
2 1 1 1 1 1 2 2 2 3 4 4 6 6 8 9 7 8 10 10 10 10
4 4 4 3 3 2 2 3 4 5 6 6 6 8 9 10 7 10 11 13 14 16

GFSNIL_850_spd_126.txt.gz
Wind_Speed
21 25 26 27 26 28 26 27 22 24 25 27 24 24 24 26 27 26 27 31 31 31
19 20 23 25 26 25 25 21 21 21 20 21 24 26 26 26 27 24 24 25 30 34
18 20 22 19 21 19 19 18 19 20 20 24 22 25 26 25 25 25 22 26 24 22
12 16 17 20 18 21 21 21 22 20 21 26 26 30 27 25 25 24 19 18 17 14
7 8 13 11 16 18 20 19 20 19 20 17 12 12 28 23 24 15 16 17 16 20
13 15 9 6 8 15 16 14 6 5 10 11 14 20 4 6 7 9 8 11 13 13
14 14 15 12 11 12 11 10 5 1 1 1 3 3 5 0 2 2 4 5 7 8
9 10 11 12 12 9 10 8 5 6 4 4 4 4 4 2 3 4 5 6 8 8
2 2 2 3 4 6 4 5 6 7 7 6 5 3 4 3 3 4 4 5 6 8
2 2 3 4 5 5 5 4 4 3 3 4 3 2 1 2 2 3 4 4 5 7
2 2 2 3 3 4 4 3 3 2 1 1 1 1 2 3 3 3 4 5 7 8
3 3 3 3 2 2 2 2 1 1 2 2 2 1 2 4 3 3 4 5 6 8
4 4 3 2 2 1 1 1 1 2 3 5 3 2 2 3 4 3 4 5 7 10
7 6 5 4 4 4 4 4 4 5 5 5 6 3 3 4 5 5 6 7 8 11

GFSNIL_850_spd_129.txt.gz
Wind_Speed
12 15 19 21 23 23 25 25 25 27 27 27 26 24 22 25 25 24 25 27 29 29
15 16 17 18 19 24 25 22 21 22 25 25 24 24 25 25 25 26 27 28 28 30
13 17 20 21 21 22 20 19 20 21 18 18 17 19 22 24 24 24 26 27 27 27
9 11 14 17 17 16 19 19 19 18 19 19 17 18 23 26 29 29 25 29 29 30
6 9 11 13 16 19 17 16 18 19 20 21 23 20 12 15 19 24 22 23 22 21
7 5 2 2 8 12 14 15 15 15 12 12 13 14 10 6 7 5 15 14 18 13
10 10 9 10 6 8 13 15 13 8 6 2 1 3 6 4 5 7 4 3 4 5
9 9 7 6 8 8 8 8 9 5 2 2 3 3 5 3 1 5 4 4 5 6
7 7 7 7 7 6 7 4 3 3 2 3 4 2 3 2 4 4 4 5 7 6
6 5 4 2 2 2 1 0 1 1 0 1 1 1 1 2 3 4 4 4 4 6
6 4 3 3 2 1 1 1 1 1 1 1 2 2 3 3 4 3 3 4 4 6
5 5 4 3 3 3 2 2 3 3 2 3 3 3 4 4 4 4 4 5 6 7
7 7 6 5 5 5 4 4 5 5 5 3 3 3 4 4 5 6 6 6 7 9
10 9 8 8 7 7 7 7 6 6 6 6 5 5 6 6 6 7 8 8 8 9